#timestamp,LO_Frequency,Hit 
1499616015.2,286046997.8,N
1499616035.0,286046995.0,N
1499616036.0,286046995.0,N
1499616055.8,286046997.9,N
1499616075.6,286046995.4,N
1499616095.4,286046995.1,N
1499616115.3,286046998.0,N
1499616135.1,286046996.2,N
1499616155.8,286046995.6,N
1499616175.7,286046993.8,N
1499616195.5,286046994.6,N
1499616215.3,286046994.4,N
1499616235.2,286046991.8,N
1499616255.9,286046992.6,N
1499616275.7,286046992.4,N
1499616295.6,286046994.8,N
1499616315.4,286046992.4,N
1499616335.2,286046992.1,N
1499616355.0,286046992.1,N
1499616356.0,286046992.1,N
1499616375.8,286046992.1,N
1499616395.6,286046991.9,N
1499616415.4,286046991.7,N
1499616435.3,286046994.4,N
1499616455.1,286046994.3,N
1499616475.8,286046994.0,N
1499616495.7,286046994.5,N
1499616515.5,286046994.8,N
1499616535.3,286046994.2,N
1499616555.2,286046994.6,N
1499616575.9,286046994.3,N
1499616595.7,286046992.2,N
1499616615.6,286046991.7,N
1499616635.4,286046992.4,N
1499616655.2,286046994.8,N
1499616675.0,286046992.1,N
1499616676.0,286046992.1,N
1499616695.8,286046992.6,N
1499616715.6,286046992.9,N
1499616735.4,286046993.2,N
1499616755.3,286046993.0,N
1499616775.1,286046993.0,N
1499616795.8,286046992.6,N
1499616815.7,286046990.6,N
1499616835.5,286046990.2,N
1499616855.3,286046990.7,N
1499616875.2,286046990.6,N
1499616895.9,286046992.8,N
1499616915.7,286046992.8,N
1499616935.6,286046990.1,N
1499616955.4,286046990.7,N
1499616975.2,286046991.6,N
1499616995.1,286046991.0,N
1499616996.0,286046991.0,N
1499617015.8,286046991.4,N
1499617035.6,286046991.0,N
1499617055.4,286046988.5,N
1499617075.3,286046991.5,N
1499617095.1,286046991.5,N
1499617115.8,286046991.2,N
1499617135.7,286046991.1,N
1499617155.5,286046991.3,N
1499617175.3,286046988.7,N
1499617195.2,286046989.4,N
1499617215.9,286046989.3,N
1499617235.7,286046987.4,N
1499617255.6,286046987.3,N
1499617275.4,286046987.3,N
1499617295.2,286046987.7,N
1499617315.1,286046988.7,N
1499617316.0,286046988.7,N
1499617335.8,286046989.3,N
1499617355.6,286046989.3,N
1499617375.5,286046987.0,N
1499617395.3,286046989.0,N
1499617415.1,286046989.2,N
1499617435.9,286046990.8,N
1499617455.7,286046991.2,N
1499617475.5,286046989.4,N
1499617495.3,286046985.8,N
1499617515.2,286046988.2,N
1499617535.0,286046990.0,N
1499617535.9,286046990.0,N
1499617555.7,286046987.5,N
1499617575.6,286046989.6,N
1499617595.4,286046989.5,N
1499617615.2,286046987.0,N
1499617635.1,286046988.1,N
1499617636.0,286046988.1,N
1499617655.8,286046988.0,N
1499617675.6,286046985.4,N
1499617695.5,286046985.4,N
1499617715.3,286046985.5,N
1499617735.1,286046985.3,N
1499617755.9,286046985.4,N
1499617775.7,286046985.3,N
1499617795.5,286046987.9,N
1499617815.4,286046985.7,N
1499617835.2,286046985.5,N
1499617855.0,286046985.7,N
1499617855.9,286046985.7,N
1499617875.7,286046985.5,N
1499617895.6,286046986.3,N
1499617915.4,286046986.1,N
1499617935.2,286046986.7,N
1499617955.1,286046986.1,N
1499617956.0,286046986.1,N
1499617975.8,286046985.7,N
1499617995.6,286046988.3,N
1499618015.5,286046988.4,N
1499618035.3,286046988.3,N
1499618055.1,286046987.8,N
1499618075.9,286046985.5,N
1499618095.7,286046988.4,N
1499618115.5,286046988.3,N
1499618135.4,286046985.3,N
1499618155.2,286046986.6,N
1499618175.0,286046983.7,N
1499618175.9,286046983.7,N
1499618195.8,286046986.4,N
1499618215.6,286046986.8,N
1499618235.4,286046985.1,N
1499618255.2,286046984.8,N
1499618275.1,286046984.8,N
1499618276.0,286046984.8,N
1499618295.8,286046984.9,N
1499618315.6,286046984.3,N
1499618335.5,286046984.6,N
1499618355.3,286046984.6,N
1499618375.1,286046982.2,N
1499618395.9,286046982.4,N
1499618415.7,286046983.4,N
1499618435.5,286046982.9,N
1499618455.4,286046982.8,N
1499618475.2,286046983.1,N
1499618495.0,286046983.1,N
1499618495.9,286046983.1,N
1499618515.8,286046983.3,N
1499618535.6,286046982.8,N
1499618555.4,286046983.4,N
1499618575.3,286046983.0,N
1499618595.1,286046983.4,N
1499618596.0,286046983.4,N
1499618615.8,286046983.2,N
1499618635.6,286046983.3,N
1499618655.5,286046983.5,N
1499618675.3,286046981.0,N
1499618695.1,286046980.6,N
1499618715.9,286046983.6,N
1499618735.7,286046983.2,N
1499618755.5,286046980.6,N
1499618775.4,286046980.5,N
1499618795.2,286046983.5,N
1499618815.0,286046981.2,N
1499618815.9,286046981.2,N
1499618835.8,286046980.5,N
1499618855.6,286046980.5,N
1499618875.4,286046983.2,N
1499618895.3,286046981.4,N
1499618915.1,286046980.6,N
1499618916.0,286046980.6,N
1499618935.8,286046980.8,N
1499618955.7,286046981.6,N
1499618975.5,286046980.6,N
1499618995.3,286046981.8,N
1499619015.2,286046981.8,N
1499619035.9,286046981.0,N
1499619055.7,286046981.3,N
1499619075.6,286046982.0,N
1499619095.4,286046981.5,N
1499619115.2,286046982.0,N
1499619135.0,286046981.8,N
1499619135.9,286046981.8,N
1499619155.8,286046979.2,N
1499619175.6,286046981.6,N
1499619195.4,286046979.6,N
1499619215.3,286046979.8,N
1499619235.1,286046979.7,N
1499619255.8,286046979.2,N
1499619275.7,286046979.8,N
1499619295.5,286046979.3,N
1499619315.3,286046979.8,N
1499619335.2,286046979.1,N
1499619355.9,286046980.2,N
1499619375.7,286046980.3,N
1499619395.6,286046980.4,N
1499619415.4,286046979.6,N
1499619435.2,286046980.3,N
1499619455.0,286046978.3,N
1499619456.0,286046978.3,N
1499619475.8,286046978.0,N
1499619495.6,286046980.4,N
1499619515.4,286046979.4,N
1499619535.3,286046982.0,N
1499619555.1,286046979.7,N
1499619575.8,286046980.3,N
1499619595.7,286046977.5,N
